Location: Hickory_CSC
(35.7330°N, 81.3330°W)
Time: 01:09:06
(UTC-05:00)

ISS - All Passes

Search period start: 22 February 2017 00:00
Search period end: 04 March 2017 00:00
Orbit: 399 x 408 km, 51.6° (Epoch: 22 February)

Date Brightness Start Highest point End Pass type
(mag) Time Alt. Az. Time Alt. Az. Time Alt. Az.
22 Feb - 08:57:58 10° SW 09:01:14 69° SE 09:04:31 10° NE daylight
22 Feb - 10:36:00 10° WNW 10:38:00 15° NNW 10:40:01 10° N daylight
22 Feb - 15:28:25 10° NNW 15:31:10 24° NNE 15:33:53 10° E daylight
22 Feb - 17:04:43 10° WNW 17:07:37 29° SW 17:10:30 10° SSE daylight
23 Feb - 08:05:52 10° SSW 08:08:49 31° SE 08:11:46 10° ENE daylight
23 Feb - 09:42:33 10° W 09:45:17 24° NNW 09:48:02 10° NNE daylight
23 Feb - 14:36:25 10° N 14:38:27 15° NNE 14:40:28 10° ENE daylight
23 Feb - 16:11:57 10° NW 16:15:13 66° SW 16:18:26 10° SE daylight
24 Feb - 07:14:30 10° SSE 07:16:28 15° SE 07:18:26 10° E daylight
24 Feb - 08:49:30 10° WSW 08:52:39 42° NW 08:55:49 10° NE daylight
24 Feb - 13:45:07 10° NNE 13:45:37 10° NNE 13:46:08 10° NNE daylight
24 Feb - 15:19:27 10° NW 15:22:41 56° NE 15:25:54 10° ESE daylight
24 Feb - 16:57:43 10° WSW 16:58:45 11° SW 16:59:48 10° SW daylight
25 Feb - 07:56:49 10° SW 08:00:06 89° E 08:03:24 10° NE daylight
25 Feb - 09:35:18 10° NW 09:36:57 13° NNW 09:38:38 10° N daylight
25 Feb - 14:27:09 10° NNW 14:30:04 29° NE 14:32:58 10° E daylight
25 Feb - 16:03:45 10° WNW 16:06:26 23° SW 16:09:05 10° S daylight
26 Feb - 07:04:31 10° SSW 07:07:36 39° SE 07:10:43 10° ENE daylight
26 Feb - 08:41:38 10° W 08:44:10 20° NNW 08:46:44 10° NNE daylight
26 Feb - 13:35:02 10° NNW 13:37:20 17° NNE 13:39:39 10° ENE daylight
26 Feb - 15:10:48 10° WNW 15:14:00 50° SW 15:17:10 10° SSE daylight
27 Feb - 06:12:49 10° S 06:15:12 19° SE 06:17:36 10° E visible
27 Feb - 07:48:25 10° WSW 07:51:28 34° NW 07:54:32 10° NNE daylight
27 Feb - 12:43:17 10° N 12:44:31 12° NNE 12:45:45 10° NE daylight
27 Feb - 14:18:11 10° NW 14:21:29 72° NE 14:24:44 10° SE daylight
28 Feb - 06:55:34 10° SW 06:58:50 71° NW 07:02:08 10° NE daylight
28 Feb - 08:34:34 10° NW 08:35:48 12° NNW 08:37:02 10° N daylight
28 Feb - 13:25:47 10° NNW 13:28:51 35° NE 13:31:53 10° ESE daylight
28 Feb - 15:02:45 10° W 15:05:07 18° SW 15:07:27 10° S daylight
01 Mar - 06:03:06 10° SSW 06:06:17 51° SE 06:09:30 10° ENE visible
01 Mar - 07:40:39 10° WNW 07:42:57 17° NNW 07:45:16 10° NNE daylight
01 Mar - 12:33:34 10° NNW 12:36:07 20° NNE 12:38:39 10° E daylight
01 Mar - 14:09:36 10° WNW 14:12:40 39° SW 14:15:44 10° SSE daylight
02 Mar - 05:11:08 10° S 05:13:49 23° SE 05:16:31 10° ENE visible
02 Mar - 06:47:16 10° W 06:50:10 29° NW 06:53:06 10° NNE daylight
02 Mar - 11:41:37 10° N 11:43:16 13° NNE 11:44:56 10° NE daylight
02 Mar - 13:16:50 10° NW 13:20:09 89° SSW 13:23:25 10° SE daylight
03 Mar - 04:20:17 10° SSE 04:21:25 11° SE 04:22:32 10° ESE visible
03 Mar - 05:54:15 10° WSW 05:57:29 55° NW 06:00:44 10° NE visible
03 Mar - 07:34:01 10° NNW 07:34:32 10° NNW 07:35:05 10° NNW daylight
03 Mar - 12:24:21 10° NW 12:27:30 43° NE 12:30:39 10° ESE daylight
03 Mar - 14:01:45 10° W 14:03:40 15° SW 14:05:36 10° SSW daylight
